#timestamp,LO_Frequency,Hit,StdDev 
1593349215.1,286046997.5,N
1593349235.9,286046999.2,N
1593349255.7,286046997.8,N
1593349275.6,286046997.3,N
1593349295.4,286046997.1,N
1593349315.2,286046997.1,N
1593349335.1,286046995.0,Y
1593349336.0,286046995.0,P
1593349355.8,286046998.0,N
1593349375.6,286046996.3,N
1593349395.5,286046998.0,N
1593349415.3,286046997.6,N
1593349435.2,286046996.5,N
1593349455.9,286046998.8,N
1593349475.7,286046999.6,N
1593349495.6,286046999.0,N
1593349515.4,286046998.8,N
1593349535.2,286047001.1,N
1593349555.1,286047000.9,N
1593349556.0,286047000.9,N
1593349575.8,286046998.3,N
1593349595.7,286047000.7,N
1593349615.5,286046999.0,N
1593349635.3,286046999.1,N
1593349655.2,286046999.4,N
1593349675.9,286046999.0,N
1593349695.7,286046997.1,N
1593349715.6,286046997.7,N
1593349735.4,286046994.9,Y
1593349755.2,286046999.0,P
1593349775.1,286046997.1,P
1593349776.0,286046997.1,P
1593349795.8,286046996.9,Y
1593349815.7,286047000.4,P
1593349835.5,286047000.0,N
1593349855.3,286047002.8,N
1593349875.2,286046999.8,N
1593349895.0,286047001.2,N
1593349895.9,286047001.2,N
1593349915.7,286046998.5,N
1593349935.6,286046998.8,N
1593349955.4,286046998.4,N
1593349975.3,286047000.3,N
1593349995.1,286046999.9,N
1593349996.0,286046999.9,N
1593350015.8,286047000.2,N
1593350035.7,286046998.3,N
1593350055.5,286046998.4,N
1593350075.3,286046999.4,N
1593350095.2,286046996.9,N
1593350115.0,286046999.5,N
1593350115.9,286046999.5,N
1593350135.8,286046999.3,N
1593350155.6,286047001.2,N
1593350175.4,286046999.4,N
1593350195.3,286046996.7,N
1593350215.1,286046997.3,N
1593350235.8,286046999.4,N
1593350255.7,286046996.7,N
1593350275.5,286046996.7,N
1593350295.4,286046997.9,N
1593350315.2,286046997.5,N
1593350335.0,286046995.0,Y
1593350335.9,286046995.0,P
1593350355.8,286046999.3,N
1593350375.6,286046998.6,N
1593350395.4,286046998.7,N
1593350415.3,286046998.8,N
1593350435.1,286046998.9,N
1593350455.9,286046998.0,N
1593350475.7,286046997.4,N
1593350495.5,286046996.4,N
1593350515.4,286046998.0,N
1593350535.2,286046995.6,Y
1593350555.0,286046999.2,P
1593350555.9,286046999.2,N
1593350575.8,286046998.8,N
1593350595.6,286047001.2,N
1593350615.5,286047000.8,N
1593350635.3,286047000.0,N
1593350655.1,286046999.7,N
1593350675.9,286046999.8,N
1593350695.7,286047002.8,Y
1593350715.5,286047002.2,P
1593350735.4,286047001.8,N
1593350755.2,286047002.2,N
1593350775.1,286047002.2,N
1593350776.0,286047002.2,N
1593350795.8,286047001.5,N
1593350815.6,286046999.8,N
1593350835.5,286047002.8,N
1593350855.3,286047002.5,N
1593350875.1,286047002.6,N
1593350895.9,286046999.7,N
1593350915.7,286047002.6,N
1593350935.6,286047002.2,N
1593350955.4,286047001.2,N
1593350975.2,286047002.8,N
1593350995.1,286047001.4,N
1593350996.0,286047001.4,N
1593351015.8,286047000.7,N
1593351035.6,286047000.2,N
1593351055.5,286047002.8,N
1593351075.3,286047000.3,N
1593351095.2,286046999.2,N
1593351115.9,286046999.1,N
1593351135.7,286046998.4,N
1593351155.6,286046998.8,N
1593351175.4,286047000.9,N
1593351195.2,286047000.8,N
1593351215.1,286047000.5,N
1593351216.0,286047000.5,N
1593351235.8,286047002.0,N
1593351255.7,286047000.0,N
1593351275.5,286047000.2,N
1593351295.3,286047000.0,N
1593351315.2,286047000.4,N
1593351335.9,286046999.8,N
1593351355.7,286047001.5,N
1593351375.6,286047002.4,N
1593351395.4,286046998.2,N
1593351415.2,286047000.0,N
1593351435.1,286047003.2,N
1593351436.0,286047003.2,N
1593351455.8,286047001.7,N
1593351475.7,286046999.8,N
1593351495.5,286046999.9,N
1593351515.3,286047002.7,N
1593351535.2,286046998.6,N
1593351555.0,286046998.2,N
1593351555.9,286046998.2,N
1593351575.8,286046996.5,N
1593351595.6,286046999.0,N
1593351615.4,286047000.7,N
1593351635.3,286047000.5,N
1593351655.1,286046998.7,N
1593351656.0,286046998.7,N
1593351675.8,286046996.9,N
1593351695.7,286046999.5,N
1593351715.5,286046998.7,N
1593351735.3,286046998.1,N
1593351755.2,286047001.0,N
1593351775.0,286047000.1,N
1593351775.9,286047000.1,N
1593351795.8,286047000.4,N
1593351815.6,286046998.1,N
1593351835.4,286047002.6,N
1593351855.3,286047000.2,N
1593351875.1,286047000.3,N
1593351895.9,286046998.4,N
1593351915.7,286047000.4,N
1593351935.5,286047000.4,N
1593351955.4,286047000.2,N
1593351975.2,286046998.2,N
1593351995.0,286046998.1,N
1593351995.9,286046998.1,N
1593352015.8,286047000.8,N
1593352035.6,286046998.4,N
1593352055.5,286046999.3,N
1593352075.3,286046998.2,N
1593352095.1,286046999.2,N
1593352115.9,286046998.3,N
1593352135.7,286046999.1,N
1593352155.6,286046998.6,N
1593352175.4,286046996.9,N
1593352195.2,286046998.6,N
1593352215.1,286046998.2,N
1593352216.0,286046998.2,N
1593352235.8,286047000.7,N
1593352255.6,286046997.4,N
1593352275.5,286046997.2,N
1593352295.3,286046995.1,Y
1593352315.2,286046998.9,P
1593352335.9,286046998.2,P
1593352355.7,286046998.7,P
1593352375.6,286046998.9,Y
1593352395.4,286047002.4,P
1593352415.2,286047000.9,N
1593352435.1,286047000.4,N
1593352436.0,286047000.4,N
1593352455.8,286047002.6,N
1593352475.7,286047000.8,N
1593352495.5,286046998.2,N
1593352515.3,286046998.6,N
1593352535.2,286046998.7,N
1593352555.0,286047001.1,N
1593352555.9,286047001.1,N
1593352575.7,286047000.9,N
1593352595.6,286047000.0,N
1593352615.4,286047002.3,N
1593352635.3,286047001.9,N
1593352655.1,286047002.2,N
1593352656.0,286047002.2,N
1593352675.8,286047001.6,N
1593352695.7,286047002.6,N
1593352715.5,286047002.2,N
1593352735.3,286047004.3,Y
1593352755.2,286047001.8,P
1593352775.0,286047004.3,P
1593352775.9,286047004.3,N
1593352795.8,286047004.2,N
